Flag for Germany Weather past 2 weeks in Brühl (Rhineland), North Rhine-Westphalia, Germany

Now
40 °F

Partly sunny.


Feels Like: 38 °F
Forecast: 30 / 35 °F
Wind: 3 mph from West

Location: Noervenich

Current Time: Dec 26, 2014 at 2:06:30 PM

Latest Report: Dec 26, 2014 at 1:00 PM


Visibility: 6 mi

Pressure: 30.40 "Hg

Humidity: 86%

Dew point: 36 °F

Location of Brühl (Rhineland)Location

Historic Weather in Brühl (Rhineland) — Graph

°F

Brühl (Rhineland) temperature yesterday

Maximum temperature yesterday: 44 °F (at 3:00 PM)
Minimum temperature yesterday: 35 °F (at 11:00 PM)
Average temperature yesterday: 40 °F

Past Weeks' High & Low Weather Summary

 TemperatureHumidityPressure
High55 °F (Dec 18, 6:00 PM)99% (Dec 14, 6:00 AM)30.43 "Hg (Dec 14, 6:00 AM)
Low33 °F (Dec 14, 8:00 AM)68% (Dec 24, 2:00 AM)29.44 "Hg (Dec 12, 3:00 PM)
Average44 °F83%30.02 "Hg
* Reported Dec 11 1:00 PM — Dec 26 1:00 PM, Brühl (Rhineland), Weather by CustomWeather, © 2014

Note: Actual official high and low records may vary slightly from our data, if they occured in-between our weather recording intervals... More about our weather records

Advertising

Brühl (Rhineland) weather history for previous 24 hours

 ConditionsComfort  
Time TempWeatherWind HumidityBarometerVisibility
1:00 PM
Dec 26
N/APassing clouds.N/AN/AN/A1 mi
12:00 PM39 °FPartly sunny.5 mph89%30.42 "Hg6 mi
11:00 AM38 °FPartly sunny.5 mph93%30.43 "Hg6 mi
9:00 AM37 °FPartly sunny.3 mph95%30.43 "Hg6 mi
8:00 AM37 °FLow clouds.3 mph93%30.42 "Hg12 mi
6:00 AM36 °FOvercast.5 mph94%30.41 "Hg16 mi
5:00 AM36 °FOvercast.3 mph95%30.42 "Hg16 mi
4:00 AMN/APassing clouds.2 mphN/AN/A2 mi
3:00 AM36 °FPassing clouds.5 mph93%30.41 "Hg16 mi
2:00 AM37 °FPassing clouds.5 mph91%30.40 "Hg16 mi
1:00 AM37 °FPassing clouds.5 mph92%30.40 "Hg16 mi
12:00 AM37 °FPassing clouds.3 mph93%30.39 "Hg19 mi
11:00 PM
Dec 25
35 °FPassing clouds.3 mph95%30.39 "Hg19 mi
9:00 PM38 °FPassing clouds.5 mph91%30.36 "Hg19 mi
8:00 PM38 °FOvercast.3 mph93%30.35 "Hg19 mi
6:00 PM40 °FOvercast.5 mph90%30.32 "Hg19 mi
5:00 PM39 °FOvercast.5 mph91%30.29 "Hg9 mi
3:00 PM44 °FSprinkles. Overcast.8 mph79%30.26 "Hg4 mi
2:00 PM43 °FOvercast.8 mph79%30.26 "Hg12 mi
Weather by CustomWeather, © 2014

See weather overviewHow to use our weather pages